Weather History for New River MCAS, NC

Change the Weather History Date:

Wednesday, May 29, 2013

  Actual Average Record
Temperature  
Mean Temperature 72 °F -  
Max Temperature 82 °F 80 °F 89 °F (2007)
Min Temperature 62 °F 61 °F 48 °F (2001)
Cooling Degree Days 7    
Growing Degree Days 22 (Base 50)    
Moisture  
Dew Point 65 °F    
Average Humidity 82    
Maximum Humidity 100    
Minimum Humidity 52    
Precipitation  
Precipitation 0.00 in - - ()
Sea Level Pressure  
Sea Level Pressure 30.25 in    
Wind  
Wind Speed 3 mph (South)    
Max Wind Speed 14 mph    
Max Gust Speed 21 mph    
Visibility 8 miles    
Events      
Averages and records for this station are not official NWS values.
T = Trace of Precipitation, MM = Missing Value Source: NWS Daily Summary

Daily Weather History Graph

Daily Weather History Graph

Search for Another Location

Airport:

Trip Planner

Search our weather history database for the weather conditions in past years. The results will help you decide how hot, cold, wet, or windy it might be!

Date:

Astronomy

May. 29, 2013 Rise Set
Actual Time 5:58 AM EDT 8:16 PM EDT
Civil Twilight 5:29 AM EDT 8:44 PM EDT
Nautical Twilight 4:54 AM EDT 9:20 PM EDT
Astronomical Twilight 4:15 AM EDT 9:59 PM EDT
Moon No Moon Rise 10:49 AM EDT (5/29)
Length of Visible Light 15h 15m
Length of Day
14h 17m
Waning Gibbous, 73% of the Moon is Illuminated
May 29
Waning Gibbous
May 31
Last Quarter
Jun 8
New
Jun 16
First Quarter
Jun 23
Full

Hourly Weather History & Observations

Time (EDT) Temp. Heat Index Dew Point Humidity Pressure Visibility Wind Dir Wind Speed Gust Speed Precip Events Conditions
12:56 AM 68.0 °F - 66.0 °F 93% 30.25 in 10.0 mi SSW 3.5 mph - N/A   Clear
1:56 AM 68.0 °F - 66.9 °F 96% 30.23 in 9.0 mi Calm Calm - N/A   Clear
2:56 AM 66.9 °F - 66.0 °F 97% 30.22 in 9.0 mi South 3.5 mph - N/A   Clear
3:56 AM 66.9 °F - 66.0 °F 97% 30.22 in 9.0 mi Calm Calm - N/A   Clear
4:32 AM 66.2 °F - 64.4 °F 94% 30.22 in 1.8 mi Calm Calm - N/A   Clear
4:35 AM 64.4 °F - 64.4 °F 100% 30.22 in 0.8 mi Calm Calm - N/A   Clear
4:46 AM 64.4 °F - 64.4 °F 100% 30.22 in 1.2 mi Calm Calm - N/A   Clear
4:50 AM 64.4 °F - 64.4 °F 100% 30.23 in 3.0 mi Calm Calm - N/A   Clear
4:56 AM 64.9 °F - 64.9 °F 100% 30.23 in 6.0 mi Calm Calm - N/A   Clear
5:56 AM 63.0 °F - 62.1 °F 97% 30.25 in 4.0 mi Calm Calm - N/A   Clear
6:11 AM 62.6 °F - 62.6 °F 100% 30.24 in 3.0 mi Calm Calm - N/A   Partly Cloudy
6:56 AM 64.9 °F - 64.0 °F 97% 30.27 in 9.0 mi Calm Calm - N/A   Clear
7:56 AM 70.0 °F - 68.0 °F 93% 30.28 in 10.0 mi Calm Calm - N/A   Clear
8:56 AM 75.0 °F - 68.0 °F 79% 30.29 in 10.0 mi West 3.5 mph - N/A   Scattered Clouds
9:56 AM 78.1 °F - 66.0 °F 66% 30.29 in 10.0 mi West 4.6 mph - N/A   Mostly Cloudy
10:56 AM 79.0 °F - 64.9 °F 62% 30.29 in 10.0 mi Variable 6.9 mph - N/A   Mostly Cloudy
11:56 AM 78.1 °F - 66.0 °F 66% 30.30 in 10.0 mi Variable 5.8 mph - N/A   Overcast
12:56 PM 81.0 °F 82.2 °F 63.0 °F 54% 30.29 in 10.0 mi South 11.5 mph 20.7 mph N/A   Mostly Cloudy
2:56 PM 82.0 °F 83.1 °F 63.0 °F 52% 30.25 in 10.0 mi SE 13.8 mph 19.6 mph N/A   Clear
3:56 PM 80.1 °F 81.7 °F 64.0 °F 58% 30.25 in 10.0 mi South 12.7 mph - N/A   Clear
4:56 PM 80.1 °F 81.5 °F 63.0 °F 56% 30.24 in 10.0 mi South 13.8 mph - N/A   Clear
5:56 PM 79.0 °F - 63.0 °F 58% 30.24 in 10.0 mi South 11.5 mph - N/A   Clear
6:56 PM 77.0 °F - 63.0 °F 62% 30.25 in 10.0 mi South 9.2 mph - N/A   Clear
7:56 PM 73.9 °F - 64.0 °F 71% 30.25 in 10.0 mi South 8.1 mph - N/A   Clear
8:56 PM 71.1 °F - 64.0 °F 78% 30.25 in 10.0 mi South 5.8 mph - N/A   Clear
9:56 PM 69.1 °F - 64.9 °F 87% 30.25 in 10.0 mi South 3.5 mph - N/A   Clear
10:56 PM 66.9 °F - 64.9 °F 93% 30.26 in 10.0 mi Calm Calm - N/A   Clear
11:56 PM 66.0 °F - 64.0 °F 93% 30.26 in 10.0 mi Calm Calm - N/A   Clear